Location: Caltanissetta
(37.4830°N, 14.0670°E)
Time: 06:40:58
(UTC+01:00)

ISS - Visible Passes

Search period start: 20 January 2019 00:00
Search period end: 30 January 2019 00:00
Orbit: 404 x 410 km, 51.6° (Epoch: 20 January)

Date Brightness Start Highest point End Pass type
(mag) Time Alt. Az. Time Alt. Az. Time Alt. Az.
20 Jan -1.1 19:33:56 10° SW 19:34:52 18° SW 19:34:52 18° SW visible
21 Jan -3.6 18:42:42 10° SSW 18:45:53 51° SE 18:46:04 50° ESE visible
22 Jan -2.4 17:51:53 10° S 17:54:38 25° SE 17:57:11 11° ENE visible
22 Jan -1.5 19:28:07 10° W 19:29:55 24° WNW 19:29:55 24° WNW visible
23 Jan -3.3 18:36:24 10° WSW 18:39:38 55° NW 18:40:56 31° NNE visible
24 Jan -3.8 17:44:58 10° SW 17:48:14 73° SE 17:51:32 10° NE visible
24 Jan -1.2 19:22:53 10° WNW 19:24:36 16° NW 19:24:36 16° NW visible
25 Jan -2.0 18:30:43 10° W 18:33:29 24° NNW 18:35:27 15° NNE visible
26 Jan -0.9 19:18:30 10° NNW 19:18:57 10° NNW 19:18:57 10° NNW visible
27 Jan -1.3 18:25:36 10° WNW 18:27:28 14° NNW 18:29:19 10° NNE visible
